Location: Helsinki
(60.1699°N, 24.9384°E)
Time: 02:20:11
(UTC+02:00)

Altair - All Passes

Search period start: 27 October 2020 00:00
Search period end: 06 November 2020 00:00
Orbit: 1502 x 1682 km, 47.2° (Epoch: 26 October)

Date Brightness Start Highest point End Pass type
(mag) Time Alt. Az. Time Alt. Az. Time Alt. Az.
27 Oct - 04:26:22 10° SSE 04:30:07 13° SE 04:33:55 10° ESE visible
27 Oct - 06:24:29 10° SSW 06:32:07 29° SSE 06:39:57 10° E visible
27 Oct - 08:26:31 10° WSW 08:34:58 38° S 08:43:44 10° ESE daylight
27 Oct - 10:29:53 10° W 10:37:58 32° SSW 10:46:17 10° SE daylight
27 Oct - 12:34:51 10° W 12:40:18 17° SW 12:45:50 10° S daylight
28 Oct - 04:02:13 10° SSE 04:05:11 12° SE 04:08:10 10° ESE visible
28 Oct - 05:59:37 10° SSW 06:07:06 28° SSE 06:14:46 10° E visible
28 Oct - 08:01:30 10° WSW 08:09:54 38° S 08:18:37 10° ESE daylight
28 Oct - 10:04:47 10° WSW 10:12:55 33° SSW 10:21:19 10° SE daylight
28 Oct - 12:09:32 10° W 12:15:19 18° SW 12:21:12 10° S daylight
29 Oct - 03:38:30 10° SE 03:40:15 11° SE 03:42:02 10° ESE visible
29 Oct - 05:34:46 10° SSW 05:42:05 27° SSE 05:49:35 10° E visible
29 Oct - 07:36:29 10° WSW 07:44:51 38° S 07:53:30 10° ESE daylight
29 Oct - 09:39:41 10° WSW 09:47:52 34° SSW 09:56:18 10° SE daylight
29 Oct - 11:44:15 10° W 11:50:19 19° SW 11:56:31 10° S daylight
30 Oct - 05:09:55 10° SSW 05:17:04 26° SSE 05:24:23 10° E visible
30 Oct - 07:11:28 10° SW 07:19:47 37° S 07:28:22 10° ESE daylight
30 Oct - 09:14:36 10° WSW 09:22:48 34° SSW 09:31:17 10° SE daylight
30 Oct - 11:18:59 10° W 11:25:19 20° SW 11:31:47 10° S daylight
31 Oct - 04:45:07 10° SSW 04:52:04 24° SSE 04:59:10 10° E visible
31 Oct - 06:46:28 10° SW 06:54:43 37° S 07:03:15 10° ESE visible
31 Oct - 08:49:31 10° WSW 08:57:45 35° SSW 09:06:15 10° SE daylight
31 Oct - 10:53:46 10° W 11:00:19 21° SW 11:07:02 10° S daylight
01 Nov - 04:20:20 10° SSW 04:27:04 23° SE 04:33:57 10° E visible
01 Nov - 06:21:28 10° SW 06:29:40 36° SSE 06:38:08 10° ESE visible
01 Nov - 08:24:27 10° WSW 08:32:41 36° SSW 08:41:13 10° SE daylight
01 Nov - 10:28:34 10° W 10:35:19 22° SW 10:42:14 10° S daylight
02 Nov - 03:55:34 10° S 04:02:05 22° SE 04:08:43 10° E visible
02 Nov - 05:56:29 10° SW 06:04:37 36° SSE 06:13:00 10° ESE visible
02 Nov - 07:59:22 10° WSW 08:07:38 36° SSW 08:16:10 10° SE daylight
02 Nov - 10:03:23 10° W 10:10:18 23° SW 10:17:25 10° SSE daylight
03 Nov - 03:30:50 10° S 03:37:06 21° SE 03:43:28 10° E visible
03 Nov - 05:31:31 10° SW 05:39:35 35° SSE 05:47:52 10° ESE visible
03 Nov - 07:34:18 10° WSW 07:42:34 37° S 07:51:07 10° SE daylight
03 Nov - 09:38:13 10° W 09:45:18 24° SSW 09:52:34 10° SSE daylight
04 Nov - 03:06:08 10° S 03:12:07 19° SE 03:18:12 10° E visible
04 Nov - 05:06:33 10° SW 05:14:32 34° SSE 05:22:45 10° ESE visible
04 Nov - 07:09:15 10° WSW 07:17:31 37° S 07:26:03 10° SE daylight
04 Nov - 09:13:03 10° W 09:20:17 25° SSW 09:27:41 10° SSE daylight
05 Nov - 02:41:28 10° S 02:47:08 18° SE 02:52:54 10° E visible
05 Nov - 04:41:36 10° SW 04:49:30 33° SSE 04:57:36 10° ESE visible
05 Nov - 06:44:12 10° WSW 06:52:27 37° S 07:00:59 10° SE visible
05 Nov - 08:47:55 10° W 08:55:15 26° SSW 09:02:47 10° SSE daylight
05 Nov - 10:55:31 10° WSW 10:57:10 11° SW 10:58:50 10° SW daylight
